Regional Weather Roundup
Issued by NWS

Home | Current Version | Previous Version | Text Only | Print | Product List | Glossary Off
Versions: 1 2 3 4 5 6 7 8 9 10 11 12 13 14 15 16 17 18 19 20 21 22 23 24 25 26 27 28 29 30 31 32 33 34 35 36 37 38 39 40 41 42 43 44 45 46 47 48 49 50

000
ASUS43 KLOT 271912
RWRIL

ILLINOIS REGIONAL WEATHER ROUNDUP
NATIONAL WEATHER SERVICE CHICAGO/ROMEOVILLE IL
200 PM CDT FRI MAR 27 2015

NOTE: "FAIR" INDICATES FEW OR NO CLOUDS BELOW 12,000 FEET WITH NO
SIGNIFICANT WEATHER AND/OR OBSTRUCTIONS TO VISIBILITY.

* THESE STATIONS ARE NOT UNDER NWS QUALITY CONTROL. THEY ALSO MAY NOT
  REPORT WEATHER SUCH AS PRECIPITATION OR FOG.

ILZ001-002-007-009-015-016-024-272000-
NORTHWEST ILLINOIS

CITY           SKY/WX    TMP DP  RH WIND       PRES   REMARKS
MOLINE         FAIR      35   9  33 NE9       30.20F WCI  28
STERLING*      FAIR      36  14  41 N13G20    30.20F WCI  27
SAVANNA*       FAIR      34   6  31 N8        30.20F WCI  27
$$

ILZ003-004-008-010-011-017-018-272000-
NORTH CENTRAL ILLINOIS

CITY           SKY/WX    TMP DP  RH WIND       PRES   REMARKS
ROCKFORD       FAIR      33   4  29 N16G23    30.19F WCI  23
FREEPORT*      FAIR      31  10  41 N10G18    30.20F WCI  22
ROCHELLE*      FAIR      31  11  42 N10G23    30.18F WCI  22
DE KALB*       FAIR      29   8  40 N17G23    30.16F WCI  17
PERU*          FAIR      33  11  41 N14G22    30.18F WCI  23
$$

ILZ005-006-012>014-019>023-272000-
NORTHEAST ILLINOIS

CITY           SKY/WX    TMP DP  RH WIND       PRES   REMARKS
CHICAGO-OHARE  PTSUNNY   30  11  45 NE9G18    30.16S WCI  22
CHICAGO-MIDWAY PTSUNNY   30  10  43 N14G21    30.17S WCI  19
AURORA         FAIR      32   7  35 N10       30.16F WCI  24
LANSING*       CLOUDY    28  12  51 N15G24    30.16S WCI  16
JOLIET*        FAIR      33   7  34 N7G18     30.16F WCI  26
WAUKEGAN       PTSUNNY   28  15  58 N18G24    30.16S WCI  15
DUPAGE AIRPORT FAIR      32   7  35 N13G20    30.15F WCI  22
KANKAKEE*      FAIR      32  15  49 N8G20     30.15F WCI  25
WHEELING       PTSUNNY   27   9  46 NE12      30.19S WCI  17
MORRIS*        FAIR      33  10  38 N8G17     30.16F WCI  26
ROMEOVILLE*    FAIR      31   8  37 N16       30.16S WCI  20
NORTHERLY ISL    N/A     27  12  53 N17         N/A  WCI  14
$$

LMZ740>746-272000-
SOUTHERN LAKE MICHIGAN

STATION/POSITION SKY/WX   TEMP    WIND        PRES    VSBY  WAVE
                          AIR SEA DIR/SP/G                  HT/PER
                          (F)     (DEG/KT/KT) (MB)    (MI)  (FT/S)
HARRISON CRIB              24     350/ 21/ 24   N/A
BURNHAM HARBOR             28      10/ 18/ 20   N/A
CALUMET HARBOR             26     340/ 19/ 25 1020.6R
BURNS HARBOR               25     350/ 18/ 22 1021.7R
MICHIGAN CITY              25     350/ 17/ 22   N/A
$$

ILZ025>027-034>036-040-047-049-050-058-095>099-272000-
WEST-CENTRAL ILLINOIS

CITY           SKY/WX    TMP DP  RH WIND       PRES   REMARKS
QUINCY         PTSUNNY   38  18  44 N7        30.18F WCI  33
GALESBURG*     FAIR      34  10  37 N13       30.19F WCI  25
MACOMB*        FAIR      37  12  34 N17G23    30.21F WCI  28
JACKSONVILLE*  PTSUNNY   39  20  46 NW14G21   30.17F WCI  31
PITTSFIELD*    CLOUDY    38  22  52 NW10      30.18F WCI  30
$$

ILZ028>032-037-038-041>044-048-051>054-059>061-272000-
CENTRAL ILLINOIS

CITY           SKY/WX    TMP DP  RH WIND       PRES   REMARKS
PONTIAC        FAIR      33  13  43 N21       30.17S WCI  21
BLOOMINGTON    FAIR      35  12  38 N16       30.15F WCI  25
DECATUR        FAIR      38  15  39 N18G24    30.14F WCI  28
PEORIA         FAIR      35   9  33 NW13G23   30.18F WCI  26
LACON*         FAIR      33  10  37 NE8       30.18F WCI  26
LINCOLN*       FAIR      38  16  41 N10G17    30.17F WCI  30
SPRINGFIELD    FAIR      40  16  37 N15G22    30.17F
TAYLORVILLE    PTSUNNY   36  21  55 NW14G23   30.15F WCI  27
$$

ILZ033-039-045-046-055>057-062-063-272000-
EAST-CENTRAL ILLINOIS

CITY           SKY/WX    TMP DP  RH WIND       PRES   REMARKS
CHAMPAIGN      CLOUDY    33  21  61 N18       30.13S WCI  22
DANVILLE*      FLURRIES  30  21  69 N15       30.10F WCI  19
RANTOUL*       CLOUDY    33  21  60 N12       30.14S WCI  24
MATTOON        PTSUNNY   35  19  52 N15       30.11F WCI  25
PARIS*         FLURRIES  32  27  81 N10G17    30.12S WCI  24
$$

ILZ079-100>102-272000-
SOUTHWEST ILLINOIS

CITY           SKY/WX    TMP DP  RH WIND       PRES   REMARKS
ALTON          CLOUDY    39  19  45 NW10G16   30.18F WCI  32
BELLEVILLE     CLOUDY    40  21  46 N16       30.16F
CAHOKIA*       CLOUDY    39  22  50 N13       30.18F WCI  31
SPARTA*        CLOUDY    37  22  56 N14G21    30.17S WCI  28
$$

ILZ064>066-069>071-074>076-080>082-084>086-088>090-092>094-272000-
SOUTH-CENTRAL ILLINOIS

CITY           SKY/WX    TMP DP  RH WIND       PRES   REMARKS
CARBONDALE     CLOUDY    37  27  67 N10G21    30.15S WCI  30
CAIRO*         CLOUDY    39  31  71 NW17      30.13F WCI  30
EFFINGHAM*     PTSUNNY   37  15  40 NW16G23   30.14F WCI  28
MARION         CLOUDY    37  27  65 N17       30.14S WCI  28
MT. VERNON     CLOUDY    37  21  52 N8G16     30.14S WCI  31
CENTRALIA*     CLOUDY    37  21  53 N14G24    30.14F WCI  28
SALEM*         CLOUDY    39  21  48 NW12      30.15S WCI  31
METROPOLIS*    CLOUDY    40  32  73 NW10      30.11S
$$

ILZ067-068-072-073-078-083-087-091-272000-
SOUTHEAST ILLINOIS

CITY           SKY/WX    TMP DP  RH WIND       PRES   REMARKS
LAWRENCEVILLE  CLOUDY    38  21  50 N16       30.11F WCI  29
FLORA*         CLOUDY    37  20  51 NW17      30.13F WCI  27
FAIRFIELD*     CLOUDY    38  22  53 N9        30.12S WCI  32
HARRISBURG*    CLOUDY    37  30  77 N14G20    30.14S WCI  28
ROBINSON*      PTSUNNY   37  22  54 NW14G20   30.12F WCI  28
CARMI*         PTSUNNY   39  25  57 N12G20    30.11S WCI  32
$$

ABBREVIATIONS USED IN REMARKS
   TC - TEMPERATURE IN CELSIUS
  WCI - WIND CHILL INDEX
   HX - HEAT INDEX
  VSB - VISIBILITY
$$




USA.gov is the U.S. government's official web portal to all federal, state and local government web resources and services.